| time (UTC) | temp F | wind direction | speed MPH | gust MPH | rain 1hr in | rain 24hr in | rain mn in | humidity % | barometer mb |
| 20260506182515 | 20 | 265 | 4.0 | 7.0 | 0.00 | 0.00 | 0.00 | ||
| 20260506181516 | 20 | 265 | 4.0 | 7.0 | 0.00 | 0.00 | 0.00 | ||
| 20260506180515 | 20 | 269 | 5.0 | 8.0 | 0.00 | 0.00 | 0.00 | ||
| 20260506175516 | 19 | 267 | 5.0 | 7.0 | 0.00 | 0.00 | 0.00 | ||
| 20260506174515 | 19 | 267 | 3.0 | 7.0 | 0.00 | 0.00 | 0.00 | ||
| 20260506173515 | 19 | 272 | 4.0 | 8.0 | 0.00 | 0.00 | 0.00 | ||
| 20260506172515 | 19 | 263 | 5.0 | 8.0 | 0.00 | 0.00 | 0.00 | ||
| 20260506171516 | 19 | 260 | 6.0 | 10.0 | 0.00 | 0.00 | 0.00 | ||
| 20260506170535 | 19 | 256 | 6.0 | 8.0 | 0.00 | 0.00 | 0.00 | ||
| 20260506165536 | 19 | 256 | 5.0 | 7.0 | 0.00 | 0.00 | 0.00 | ||
| 20260506164515 | 19 | 260 | 4.0 | 7.0 | 0.00 | 0.00 | 0.00 | ||
| 20260506163515 | 19 | 267 | 4.0 | 6.0 | 0.00 | 0.00 | 0.00 | ||
| 20260506162516 | 19 | 264 | 6.0 | 10.0 | 0.00 | 0.00 | 0.00 | ||
| 20260506161515 | 19 | 267 | 5.0 | 9.0 | 0.00 | 0.00 | 0.00 | ||
| 20260506160516 | 19 | 273 | 5.0 | 9.0 | 0.00 | 0.00 | 0.00 | ||
| 20260506155515 | 18 | 266 | 6.0 | 11.0 | 0.00 | 0.00 | 0.00 | ||
| 20260506154515 | 23 | 267 | 5.0 | 9.0 | 0.00 | 0.00 | 0.00 | ||
| 20260506153515 | 25 | 269 | 5.0 | 10.0 | 0.00 | 0.00 | 0.00 | ||
| 20260506152515 | 25 | 0.0 | 0.0 | 0.00 | 0.00 | 0.00 | |||
| 20260506151515 | 25 | 0.0 | 0.0 | 0.00 | 0.00 | 0.00 | |||
| 20260506150515 | 26 | 61 | 1.0 | 3.0 | 0.00 | 0.00 | 0.00 | ||
| 20260506145515 | 26 | 161 | 1.0 | 4.0 | 0.00 | 0.00 | 0.00 | ||
| 20260506144515 | 26 | 114 | 1.0 | 4.0 | 0.00 | 0.00 | 0.00 | ||
| 20260506143555 | 25 | 110 | 1.0 | 4.0 | 0.00 | 0.00 | 0.00 | ||
| 20260506142515 | 25 | 73 | 3.0 | 6.0 | 0.00 | 0.00 | 0.00 | ||
| 20260506141515 | 25 | 66 | 3.0 | 5.0 | 0.00 | 0.00 | 0.00 | ||
| 20260506140515 | 24 | 33 | 0.0 | 2.0 | 0.00 | 0.00 | 0.00 | ||
| 20260506135535 | 24 | 72 | 0.0 | 3.0 | 0.00 | 0.00 | 0.00 | ||
| 20260506134535 | 24 | 95 | 2.0 | 4.0 | 0.00 | 0.00 | 0.00 | ||
| 20260506133515 | 24 | 113 | 1.0 | 4.0 | 0.00 | 0.00 | 0.00 | ||
| 20260506132516 | 25 | 74 | 1.0 | 4.0 | 0.00 | 0.00 | 0.00 | ||
| 20260506131515 | 25 | 101 | 1.0 | 3.0 | 0.00 | 0.00 | 0.00 | ||
| 20260506130515 | 25 | 131 | 0.0 | 1.0 | 0.00 | 0.00 | 0.00 | ||
| 20260506125515 | 25 | 64 | 0.0 | 2.0 | 0.00 | 0.00 | 0.00 | ||
| 20260506124515 | 25 | 0.0 | 0.0 | 0.00 | 0.00 | 0.00 | |||
| 20260506123515 | 25 | 0.0 | 0.0 | 0.00 | 0.00 | 0.00 | |||
| 20260506122515 | 25 | 54 | 0.0 | 2.0 | 0.00 | 0.00 | 0.00 | ||
| 20260506121515 | 25 | 264 | 0.0 | 0.0 | 0.00 | 0.00 | 0.00 | ||
| 20260506120515 | 25 | 248 | 0.0 | 1.0 | 0.00 | 0.00 | 0.00 | ||
| 20260506115515 | 24 | 170 | 0.0 | 1.0 | 0.00 | 0.00 | 0.00 | ||
| 20260506114515 | 24 | 0.0 | 0.0 | 0.00 | 0.00 | 0.00 | |||
| 20260506113515 | 24 | 243 | 0.0 | 2.0 | 0.00 | 0.00 | 0.00 | ||
| 20260506112515 | 24 | 249 | 1.0 | 3.0 | 0.00 | 0.00 | 0.00 | ||
| 20260506111536 | 24 | 239 | 2.0 | 3.0 | 0.00 | 0.00 | 0.00 | ||
| 20260506110515 | 24 | 0.0 | 0.0 | 0.00 | 0.00 | 0.00 | |||
| 20260506105535 | 24 | 0.0 | 0.0 | 0.00 | 0.00 | 0.00 | |||
| 20260506104515 | 24 | 241 | 3.0 | 7.0 | 0.00 | 0.00 | 0.00 | ||
| 20260506103535 | 24 | 224 | 0.0 | 3.0 | 0.00 | 0.00 | 0.00 | ||
| 20260506102516 | 24 | 242 | 0.0 | 3.0 | 0.00 | 0.00 | 0.00 | ||
| 20260506101516 | 24 | 0.0 | 0.0 | 0.00 | 0.00 | 0.00 | |||
| 20260506100515 | 24 | 331 | 3.0 | 6.0 | 0.00 | 0.00 | 0.00 | ||
| 20260506095516 | 24 | 259 | 1.0 | 3.0 | 0.00 | 0.00 | 0.00 | ||
| 20260506094515 | 24 | 0.0 | 0.0 | 0.00 | 0.00 | 0.00 | |||
| 20260506093515 | 24 | 268 | 3.0 | 5.0 | 0.00 | 0.00 | 0.00 | ||
| 20260506092535 | 24 | 256 | 3.0 | 6.0 | 0.00 | 0.00 | 0.00 | ||
| 20260506091515 | 24 | 255 | 6.0 | 9.0 | 0.00 | 0.00 | 0.00 | ||
| 20260506090515 | 24 | 249 | 3.0 | 6.0 | 0.00 | 0.00 | 0.00 | ||
| 20260506085516 | 25 | 265 | 3.0 | 5.0 | 0.00 | 0.00 | 0.00 | ||
| 20260506084535 | 25 | 0.0 | 0.0 | 0.00 | 0.00 | 0.00 | |||
| 20260506083515 | 25 | 0.0 | 0.0 | 0.00 | 0.00 | 0.00 | |||
| 20260506082515 | 25 | 0.0 | 0.0 | 0.00 | 0.00 | 0.00 | |||
| 20260506081515 | 25 | 0.0 | 0.0 | 0.00 | 0.00 | 0.00 | |||
| 20260506080515 | 25 | 236 | 1.0 | 2.0 | 0.00 | 0.00 | 0.00 | ||
| 20260506073515 | 25 | 219 | 0.0 | 2.0 | 0.00 | 0.00 | 0.00 | ||
| 20260506072515 | 25 | 207 | 1.0 | 3.0 | 0.00 | 0.00 | 0.00 | ||
| 20260506071515 | 25 | 253 | 2.0 | 4.0 | 0.00 | 0.00 | 0.00 | ||
| 20260506070515 | 25 | 247 | 1.0 | 2.0 | 0.00 | 0.00 | 0.00 | ||
| 20260506061515 | 25 | 267 | 4.0 | 7.0 | 0.00 | 0.00 | 0.00 | ||
| 20260506060535 | 25 | 264 | 3.0 | 5.0 | 0.00 | 0.00 | 0.00 | ||
| 20260506050515 | 26 | 255 | 3.0 | 5.0 | 0.00 | 0.00 | 0.00 | 100 | 1005.8 |
| 20260506044515 | 27 | 257 | 3.0 | 6.0 | 0.00 | 0.00 | 0.00 | 100 | 1006.1 |
| 20260506043515 | 27 | 270 | 3.0 | 5.0 | 0.00 | 0.00 | 0.00 | 100 | 1006.2 |
| 20260506042515 | 27 | 272 | 2.0 | 4.0 | 0.00 | 0.00 | 0.00 | 100 | 1006.3 |
| 20260506041515 | 27 | 273 | 1.0 | 2.0 | 0.00 | 0.00 | 0.00 | 100 | 1006.2 |
| 20260506040515 | 27 | 266 | 2.0 | 5.0 | 0.00 | 0.00 | 0.00 | 100 | 1006.3 |
| 20260506035515 | 27 | 267 | 3.0 | 4.0 | 0.00 | 0.00 | 0.00 | 100 | 1006.4 |
| 20260506034515 | 27 | 266 | 4.0 | 8.0 | 0.00 | 0.00 | 0.00 | 100 | 1006.4 |
| 20260506033515 | 27 | 260 | 5.0 | 9.0 | 0.00 | 0.00 | 0.00 | 100 | 1006.4 |
| 20260506032515 | 27 | 270 | 2.0 | 6.0 | 0.00 | 0.00 | 0.00 | 100 | 1006.2 |
| 20260506031515 | 27 | 244 | 1.0 | 3.0 | 0.00 | 0.00 | 0.00 | 100 | 1006.5 |
| 20260506030515 | 27 | 311 | 0.0 | 0.0 | 0.00 | 0.00 | 0.00 | 100 | 1006.0 |
| 20260506025515 | 28 | 249 | 1.0 | 2.0 | 0.00 | 0.00 | 0.00 | 100 | 1006.2 |
| 20260506024515 | 27 | 244 | 2.0 | 3.0 | 0.00 | 0.00 | 0.00 | 100 | 1006.2 |
| 20260506023516 | 27 | 265 | 3.0 | 5.0 | 0.00 | 0.00 | 0.00 | 100 | 1006.3 |
| 20260506022516 | 28 | 265 | 2.0 | 4.0 | 0.00 | 0.00 | 0.00 | 94 | 1006.4 |
| 20260506021515 | 28 | 277 | 0.0 | 1.0 | 0.00 | 0.00 | 0.00 | 60 | 1006.2 |
| 20260506020515 | 28 | 264 | 1.0 | 4.0 | 0.00 | 0.00 | 0.00 | 11 | 1005.8 |
| 20260506015515 | 28 | 251 | 3.0 | 8.0 | 0.00 | 0.00 | 0.00 | 100 | 1005.9 |
| 20260506014515 | 28 | 259 | 5.0 | 8.0 | 0.00 | 0.00 | 0.00 | 100 | 1005.5 |
| 20260506013536 | 28 | 260 | 7.0 | 12.0 | 0.00 | 0.00 | 0.00 | 4 | 1005.6 |
| 20260506012515 | 28 | 255 | 8.0 | 13.0 | 0.00 | 0.00 | 0.00 | 32 | 1005.8 |
| 20260506011515 | 28 | 256 | 8.0 | 16.0 | 0.00 | 0.00 | 0.00 | 83 | 1005.6 |
| 20260506010515 | 28 | 250 | 7.0 | 12.0 | 0.00 | 0.00 | 0.00 | 82 | 1005.7 |
| 20260506005535 | 29 | 256 | 9.0 | 15.0 | 0.00 | 0.00 | 0.00 | 78 | 1005.0 |
| 20260506004535 | 29 | 264 | 8.0 | 17.0 | 0.00 | 0.00 | 0.00 | 100 | 1005.0 |
| 20260506003515 | 29 | 271 | 7.0 | 13.0 | 0.00 | 0.00 | 0.00 | ||
| 20260506002536 | 30 | 262 | 7.0 | 11.0 | 0.00 | 0.00 | 0.00 | ||
| 20260506001515 | 30 | 257 | 7.0 | 12.0 | 0.00 | 0.00 | 0.00 | ||
| 20260506000515 | 30 | 260 | 3.0 | 4.0 | 0.00 | 0.00 | 0.00 | ||
| 20260505235515 | 30 | 279 | 1.0 | 4.0 | 0.00 | 0.00 | 0.00 | ||
| 20260505234515 | 30 | 171 | 1.0 | 2.0 | 0.00 | 0.00 | 0.00 | ||
| 20260505233515 | 30 | 0.0 | 0.0 | 0.00 | 0.00 | 0.00 | |||
| 20260505232515 | 31 | 0.0 | 0.0 | 0.00 | 0.00 | 0.00 | 100 | 1003.2 | |
| 20260505231515 | 31 | 0.0 | 0.0 | 0.00 | 0.00 | 0.00 | 100 | 1003.0 | |
| 20260505230535 | 32 | 0.0 | 0.0 | 0.00 | 0.00 | 0.00 | 100 | 1003.0 | |
| 20260505225536 | 32 | 0.0 | 0.0 | 0.00 | 0.00 | 0.00 | 100 | 1003.1 | |
| 20260505224515 | 32 | 79 | 1.0 | 4.0 | 0.00 | 0.00 | 0.00 | 55 | 1003.2 |
| 20260505223515 | 33 | 117 | 0.0 | 2.0 | 0.00 | 0.00 | 0.00 | 91 | 1003.1 |
| 20260505222515 | 32 | 87 | 2.0 | 4.0 | 0.00 | 0.00 | 0.00 | 100 | 1002.8 |
| 20260505221515 | 32 | 79 | 2.0 | 5.0 | 0.00 | 0.00 | 0.00 | 100 | 1002.7 |
| 20260505220535 | 32 | 0.0 | 0.0 | 0.00 | 0.00 | 0.00 | 100 | 1002.6 | |
| 20260505215556 | 31 | 0.0 | 0.0 | 0.00 | 0.00 | 0.00 | 100 | 1002.3 | |
| 20260505214556 | 31 | 0.0 | 0.0 | 0.00 | 0.00 | 0.00 | 100 | 1002.5 | |
| 20260505213535 | 31 | 0.0 | 0.0 | 0.00 | 0.00 | 0.00 | 100 | 1002.8 | |
| 20260505212515 | 31 | 97 | 0.0 | 2.0 | 0.00 | 0.00 | 0.00 | 100 | 1003.0 |
| 20260505211516 | 31 | 0.0 | 0.0 | 0.00 | 0.00 | 0.00 | 100 | 1003.1 | |
| 20260505210515 | 31 | 0.0 | 0.0 | 0.00 | 0.00 | 0.00 | 100 | 1003.0 | |
| 20260505205515 | 31 | 0.0 | 0.0 | 0.00 | 0.00 | 0.00 | 100 | 1002.8 | |
| 20260505204515 | 31 | 289 | 1.0 | 4.0 | 0.00 | 0.00 | 0.00 | 100 | 1002.6 |
| 20260505203515 | 31 | 287 | 2.0 | 4.0 | 0.00 | 0.00 | 0.00 | 100 | 1002.8 |
| 20260505202535 | 30 | 269 | 3.0 | 6.0 | 0.00 | 0.00 | 0.00 | 100 | 1003.1 |
| 20260505201536 | 30 | 275 | 4.0 | 9.0 | 0.00 | 0.00 | 0.00 | 100 | 1003.2 |
| 20260505200515 | 30 | 259 | 8.0 | 15.0 | 0.00 | 0.00 | 0.00 | 100 | 1003.0 |
| 20260505195515 | 30 | 271 | 8.0 | 15.0 | 0.00 | 0.00 | 0.00 | 37 | 1002.7 |
| 20260505194515 | 31 | 265 | 13.0 | 31.0 | 0.00 | 0.00 | 0.00 | 100 | 1002.7 |
| 20260505193515 | 33 | 246 | 5.0 | 7.0 | 0.00 | 0.00 | 0.00 | 100 | 1001.1 |
| 20260505192515 | 33 | 250 | 6.0 | 10.0 | 0.00 | 0.00 | 0.00 | 100 | 1001.0 |
| 20260505191515 | 33 | 251 | 5.0 | 9.0 | 0.00 | 0.00 | 0.00 | 100 | 1001.1 |
| 20260505190515 | 33 | 252 | 6.0 | 9.0 | 0.00 | 0.00 | 0.00 | 100 | 1001.1 |
| 20260505185515 | 33 | 247 | 3.0 | 8.0 | 0.00 | 0.00 | 0.00 | 100 | 1001.5 |
| 20260505184515 | 32 | 232 | 7.0 | 13.0 | 0.00 | 0.00 | 0.00 | 100 | 1001.2 |
| 20260505183656 | 32 | 230 | 11.0 | 26.0 | 0.00 | 0.00 | 0.00 | 100 | 1002.0 |